Time,TemperatureF,DewpointF,PressureIn,WindDirection,WindDirectionDegrees,WindSpeedMPH,WindSpeedGustMPH,Humidity,HourlyPrecipIn,Conditions,Clouds,dailyrainin,SolarRadiationWatts/m^2,SoftwareType,DateUTC
2013-01-23 00:01:00,-9.0,-17.0,-100.00,West,266,4.0,10.0,68,0.00,,,0.00,0.000000,,2013-01-23 06:01:00,
2013-01-23 00:23:00,-9.0,-17.0,-100.00,West,266,4.0,10.0,68,0.00,,,0.00,0.000000,,2013-01-23 06:23:00,
2013-01-23 00:33:00,-9.0,-17.0,-100.00,West,266,4.0,10.0,68,0.00,,,0.00,0.000000,,2013-01-23 06:33:00,
2013-01-23 00:43:00,-9.0,-17.0,-100.00,West,266,4.0,10.0,68,0.00,,,0.00,0.000000,,2013-01-23 06:43:00,
2013-01-23 00:53:00,-9.0,-17.0,-100.00,West,266,4.0,10.0,68,0.00,,,0.00,0.000000,,2013-01-23 06:53:00,
2013-01-23 01:01:00,-10.0,-18.0,-100.00,WSW,251,4.0,7.0,68,0.00,,,0.00,0.000000,,2013-01-23 07:01:00,
2013-01-23 01:33:00,-10.0,-18.0,-100.00,WSW,251,4.0,7.0,68,0.00,,,0.00,0.000000,,2013-01-23 07:33:00,
2013-01-23 01:43:00,-10.0,-18.0,-100.00,WSW,251,4.0,7.0,68,0.00,,,0.00,0.000000,,2013-01-23 07:43:00,
2013-01-23 01:53:00,-10.0,-18.0,-100.00,WSW,251,4.0,7.0,68,0.00,,,0.00,0.000000,,2013-01-23 07:53:00,
2013-01-23 02:01:00,-12.0,-19.0,-100.00,WSW,257,3.0,7.0,69,0.00,,,0.00,0.000000,,2013-01-23 08:01:00,
2013-01-23 02:33:00,-12.0,-19.0,-100.00,WSW,257,3.0,7.0,69,0.00,,,0.00,0.000000,,2013-01-23 08:33:00,
2013-01-23 02:43:00,-12.0,-19.0,-100.00,WSW,257,3.0,7.0,69,0.00,,,0.00,0.000000,,2013-01-23 08:43:00,
2013-01-23 02:53:00,-12.0,-19.0,-100.00,WSW,257,3.0,7.0,69,0.00,,,0.00,0.000000,,2013-01-23 08:53:00,
2013-01-23 03:01:00,-14.0,-21.0,-100.00,WSW,248,4.0,6.0,69,0.00,,,0.00,0.000000,,2013-01-23 09:01:00,
2013-01-23 03:23:00,-14.0,-21.0,-100.00,WSW,248,4.0,6.0,69,0.00,,,0.00,0.000000,,2013-01-23 09:23:00,
2013-01-23 03:33:00,-14.0,-21.0,-100.00,WSW,248,4.0,6.0,69,0.00,,,0.00,0.000000,,2013-01-23 09:33:00,
2013-01-23 03:43:00,-14.0,-21.0,-100.00,WSW,248,4.0,6.0,69,0.00,,,0.00,0.000000,,2013-01-23 09:43:00,
2013-01-23 03:53:00,-14.0,-21.0,-100.00,WSW,248,4.0,6.0,69,0.00,,,0.00,0.000000,,2013-01-23 09:53:00,
2013-01-23 04:01:00,-15.0,-22.0,-100.00,West,259,3.0,9.0,68,0.00,,,0.00,0.000000,,2013-01-23 10:01:00,
2013-01-23 04:23:00,-15.0,-22.0,-100.00,West,259,3.0,9.0,68,0.00,,,0.00,0.000000,,2013-01-23 10:23:00,
2013-01-23 04:33:00,-15.0,-22.0,-100.00,West,259,3.0,9.0,68,0.00,,,0.00,0.000000,,2013-01-23 10:33:00,
2013-01-23 04:43:00,-15.0,-22.0,-100.00,West,259,3.0,9.0,68,0.00,,,0.00,0.000000,,2013-01-23 10:43:00,
2013-01-23 04:53:00,-15.0,-22.0,-100.00,West,259,3.0,9.0,68,0.00,,,0.00,0.000000,,2013-01-23 10:53:00,
2013-01-23 05:01:00,-13.0,-20.0,-100.00,WSW,247,5.0,8.0,69,0.00,,,0.00,0.000000,,2013-01-23 11:01:00,
2013-01-23 05:23:00,-13.0,-20.0,-100.00,WSW,247,5.0,8.0,69,0.00,,,0.00,0.000000,,2013-01-23 11:23:00,
2013-01-23 05:34:00,-13.0,-20.0,-100.00,WSW,247,5.0,8.0,69,0.00,,,0.00,0.000000,,2013-01-23 11:34:00,
2013-01-23 05:43:00,-13.0,-20.0,-100.00,WSW,247,5.0,8.0,69,0.00,,,0.00,0.000000,,2013-01-23 11:43:00,
2013-01-23 05:53:00,-13.0,-20.0,-100.00,WSW,247,5.0,8.0,69,0.00,,,0.00,0.000000,,2013-01-23 11:53:00,
2013-01-23 06:01:00,-13.0,-20.0,-100.00,WSW,250,4.0,8.0,69,0.00,,,0.00,0.000000,,2013-01-23 12:01:00,
2013-01-23 06:23:00,-13.0,-20.0,-100.00,WSW,250,4.0,8.0,69,0.00,,,0.00,0.000000,,2013-01-23 12:23:00,
2013-01-23 06:33:00,-13.0,-20.0,-100.00,WSW,250,4.0,8.0,69,0.00,,,0.00,0.000000,,2013-01-23 12:33:00,
2013-01-23 06:43:00,-13.0,-20.0,-100.00,WSW,250,4.0,8.0,69,0.00,,,0.00,0.000000,,2013-01-23 12:43:00,
2013-01-23 06:53:00,-13.0,-20.0,-100.00,WSW,250,4.0,8.0,69,0.00,,,0.00,0.000000,,2013-01-23 12:53:00,
2013-01-23 07:01:00,-11.0,-18.0,-100.00,SW,234,4.0,6.0,71,0.00,,,0.00,0.000000,,2013-01-23 13:01:00,
2013-01-23 07:23:00,-11.0,-18.0,-100.00,SW,234,4.0,6.0,71,0.00,,,0.00,0.000000,,2013-01-23 13:23:00,
2013-01-23 07:33:00,-11.0,-18.0,-100.00,SW,234,4.0,6.0,71,0.00,,,0.00,0.000000,,2013-01-23 13:33:00,
2013-01-23 07:43:00,-11.0,-18.0,-100.00,SW,234,4.0,6.0,71,0.00,,,0.00,0.000000,,2013-01-23 13:43:00,
2013-01-23 07:53:00,-11.0,-18.0,-100.00,SW,234,4.0,6.0,71,0.00,,,0.00,0.000000,,2013-01-23 13:53:00,
2013-01-23 08:01:00,-9.0,-16.0,-100.00,SW,230,4.0,7.0,71,0.00,,,0.00,4.000000,,2013-01-23 14:01:00,
2013-01-23 08:24:00,-9.0,-16.0,-100.00,SW,230,4.0,7.0,71,0.00,,,0.00,4.000000,,2013-01-23 14:24:00,
2013-01-23 08:33:00,-9.0,-16.0,-100.00,SW,230,4.0,7.0,71,0.00,,,0.00,4.000000,,2013-01-23 14:33:00,
2013-01-23 08:43:00,-9.0,-16.0,-100.00,SW,230,4.0,7.0,71,0.00,,,0.00,4.000000,,2013-01-23 14:43:00,
2013-01-23 08:53:00,-9.0,-16.0,-100.00,SW,230,4.0,7.0,71,0.00,,,0.00,4.000000,,2013-01-23 14:53:00,
2013-01-23 09:01:00,-6.0,-13.0,-100.00,SW,228,3.0,6.0,71,0.00,,,0.00,48.000000,,2013-01-23 15:01:00,
2013-01-23 09:23:00,-6.0,-13.0,-100.00,SW,228,3.0,6.0,71,0.00,,,0.00,48.000000,,2013-01-23 15:23:00,
2013-01-23 09:33:00,-6.0,-13.0,-100.00,SW,228,3.0,6.0,71,0.00,,,0.00,48.000000,,2013-01-23 15:33:00,
2013-01-23 09:43:00,-6.0,-13.0,-100.00,SW,228,3.0,6.0,71,0.00,,,0.00,48.000000,,2013-01-23 15:43:00,
2013-01-23 09:53:00,-6.0,-13.0,-100.00,SW,228,3.0,6.0,71,0.00,,,0.00,48.000000,,2013-01-23 15:53:00,
2013-01-23 10:01:00,-1.0,-8.0,-100.00,SSW,210,2.0,6.0,72,0.00,,,0.00,165.000000,,2013-01-23 16:01:00,
2013-01-23 10:23:00,-1.0,-8.0,-100.00,SSW,210,2.0,6.0,72,0.00,,,0.00,165.000000,,2013-01-23 16:23:00,
2013-01-23 10:33:00,-1.0,-8.0,-100.00,SSW,210,2.0,6.0,72,0.00,,,0.00,165.000000,,2013-01-23 16:33:00,
2013-01-23 10:43:00,-1.0,-8.0,-100.00,SSW,210,2.0,6.0,72,0.00,,,0.00,165.000000,,2013-01-23 16:43:00,
2013-01-23 10:53:00,-1.0,-8.0,-100.00,SSW,210,2.0,6.0,72,0.00,,,0.00,165.000000,,2013-01-23 16:53:00,
2013-01-23 11:01:00,4.0,-4.0,-100.00,West,267,5.0,11.0,70,0.00,,,0.00,243.000000,,2013-01-23 17:01:00,
2013-01-23 11:23:00,4.0,-4.0,-100.00,West,267,5.0,11.0,70,0.00,,,0.00,243.000000,,2013-01-23 17:23:00,
2013-01-23 11:34:00,4.0,-4.0,-100.00,West,267,5.0,11.0,70,0.00,,,0.00,243.000000,,2013-01-23 17:34:00,
2013-01-23 11:43:00,4.0,-4.0,-100.00,West,267,5.0,11.0,70,0.00,,,0.00,243.000000,,2013-01-23 17:43:00,
2013-01-23 11:53:00,4.0,-4.0,-100.00,West,267,5.0,11.0,70,0.00,,,0.00,243.000000,,2013-01-23 17:53:00,
2013-01-23 12:01:00,6.0,-1.0,-100.00,WSW,257,6.0,10.0,71,0.00,,,0.00,243.000000,,2013-01-23 18:01:00,
2013-01-23 12:33:00,6.0,-1.0,-100.00,WSW,257,6.0,10.0,71,0.00,,,0.00,243.000000,,2013-01-23 18:33:00,
2013-01-23 12:44:00,6.0,-1.0,-100.00,WSW,257,6.0,10.0,71,0.00,,,0.00,243.000000,,2013-01-23 18:44:00,
2013-01-23 12:53:00,6.0,-1.0,-100.00,WSW,257,6.0,10.0,71,0.00,,,0.00,243.000000,,2013-01-23 18:53:00,
2013-01-23 13:01:00,6.0,0.0,-100.00,WNW,292,8.0,13.0,75,0.00,,,0.00,183.000000,,2013-01-23 19:01:00,
2013-01-23 13:33:00,6.0,0.0,-100.00,WNW,292,8.0,13.0,75,0.00,,,0.00,183.000000,,2013-01-23 19:33:00,
2013-01-23 13:43:00,6.0,0.0,-100.00,WNW,292,8.0,13.0,75,0.00,,,0.00,183.000000,,2013-01-23 19:43:00,
2013-01-23 13:53:00,6.0,0.0,-100.00,WNW,292,8.0,13.0,75,0.00,,,0.00,183.000000,,2013-01-23 19:53:00,
2013-01-23 14:01:00,6.0,0.0,-100.00,NW,314,8.0,15.0,77,0.00,,,0.00,154.000000,,2013-01-23 20:01:00,
2013-01-23 14:33:00,6.0,0.0,-100.00,NW,314,8.0,15.0,77,0.00,,,0.00,154.000000,,2013-01-23 20:33:00,
2013-01-23 14:43:00,6.0,0.0,-100.00,NW,314,8.0,15.0,77,0.00,,,0.00,154.000000,,2013-01-23 20:43:00,
2013-01-23 14:54:00,6.0,0.0,-100.00,NW,314,8.0,15.0,77,0.00,,,0.00,154.000000,,2013-01-23 20:54:00,
2013-01-23 15:01:00,5.0,0.0,-100.00,NW,323,7.0,18.0,79,0.00,,,0.00,84.000000,,2013-01-23 21:01:00,
2013-01-23 15:23:00,5.0,0.0,-100.00,NW,323,7.0,18.0,79,0.00,,,0.00,84.000000,,2013-01-23 21:23:00,
2013-01-23 15:34:00,5.0,0.0,-100.00,NW,323,7.0,18.0,79,0.00,,,0.00,84.000000,,2013-01-23 21:34:00,
2013-01-23 15:43:00,5.0,0.0,-100.00,NW,323,7.0,18.0,79,0.00,,,0.00,84.000000,,2013-01-23 21:43:00,
2013-01-23 15:53:00,5.0,0.0,-100.00,NW,323,7.0,18.0,79,0.00,,,0.00,84.000000,,2013-01-23 21:53:00,
2013-01-23 16:01:00,4.0,-1.0,-100.00,NW,326,8.0,17.0,79,0.00,,,0.00,51.000000,,2013-01-23 22:01:00,
2013-01-23 16:23:00,4.0,-1.0,-100.00,NW,326,8.0,17.0,79,0.00,,,0.00,51.000000,,2013-01-23 22:23:00,
2013-01-23 16:33:00,4.0,-1.0,-100.00,NW,326,8.0,17.0,79,0.00,,,0.00,51.000000,,2013-01-23 22:33:00,
2013-01-23 16:43:00,4.0,-1.0,-100.00,NW,326,8.0,17.0,79,0.00,,,0.00,51.000000,,2013-01-23 22:43:00,
2013-01-23 16:53:00,4.0,-1.0,-100.00,NW,326,8.0,17.0,79,0.00,,,0.00,51.000000,,2013-01-23 22:53:00,
2013-01-23 17:01:00,4.0,-1.0,-100.00,North,1,6.0,14.0,80,0.00,,,0.00,6.000000,,2013-01-23 23:01:00,
2013-01-23 17:33:00,4.0,-1.0,-100.00,North,1,6.0,14.0,80,0.00,,,0.00,6.000000,,2013-01-23 23:33:00,
2013-01-23 17:43:00,4.0,-1.0,-100.00,North,1,6.0,14.0,80,0.00,,,0.00,6.000000,,2013-01-23 23:43:00,
2013-01-23 17:53:00,4.0,-1.0,-100.00,North,1,6.0,14.0,80,0.00,,,0.00,6.000000,,2013-01-23 23:53:00,
2013-01-23 18:01:00,3.0,-2.0,-100.00,North,8,5.0,15.0,80,0.00,,,0.00,0.000000,,2013-01-24 00:01:00,
2013-01-23 18:33:00,3.0,-2.0,-100.00,North,8,5.0,15.0,80,0.00,,,0.00,0.000000,,2013-01-24 00:33:00,
2013-01-23 18:43:00,3.0,-2.0,-100.00,North,8,5.0,15.0,80,0.00,,,0.00,0.000000,,2013-01-24 00:43:00,
2013-01-23 18:53:00,3.0,-2.0,-100.00,North,8,5.0,15.0,80,0.00,,,0.00,0.000000,,2013-01-24 00:53:00,
2013-01-23 19:01:00,2.0,-3.0,-100.00,North,6,6.0,14.0,79,0.00,,,0.00,0.000000,,2013-01-24 01:01:00,
2013-01-23 19:33:00,2.0,-3.0,-100.00,North,6,6.0,14.0,79,0.00,,,0.00,0.000000,,2013-01-24 01:33:00,
2013-01-23 19:43:00,2.0,-3.0,-100.00,North,6,6.0,14.0,79,0.00,,,0.00,0.000000,,2013-01-24 01:43:00,
2013-01-23 19:52:00,2.0,-3.0,-100.00,North,6,6.0,14.0,79,0.00,,,0.00,0.000000,,2013-01-24 01:52:00,
2013-01-23 20:01:00,2.0,-3.0,-100.00,North,11,6.0,15.0,79,0.00,,,0.00,0.000000,,2013-01-24 02:01:00,
2013-01-23 20:33:00,2.0,-3.0,-100.00,North,11,6.0,15.0,79,0.00,,,0.00,0.000000,,2013-01-24 02:33:00,
2013-01-23 20:43:00,2.0,-3.0,-100.00,North,11,6.0,15.0,79,0.00,,,0.00,0.000000,,2013-01-24 02:43:00,
2013-01-23 20:52:00,2.0,-3.0,-100.00,North,11,6.0,15.0,79,0.00,,,0.00,0.000000,,2013-01-24 02:52:00,
2013-01-23 21:01:00,1.0,-4.0,-100.00,North,360,4.0,12.0,78,0.00,,,0.00,0.000000,,2013-01-24 03:01:00,
2013-01-23 21:33:00,1.0,-4.0,-100.00,North,360,4.0,12.0,78,0.00,,,0.00,0.000000,,2013-01-24 03:33:00,
2013-01-23 21:43:00,1.0,-4.0,-100.00,North,360,4.0,12.0,78,0.00,,,0.00,0.000000,,2013-01-24 03:43:00,
2013-01-23 21:53:00,1.0,-4.0,-100.00,North,360,4.0,12.0,78,0.00,,,0.00,0.000000,,2013-01-24 03:53:00,
2013-01-23 22:01:00,0.0,-5.0,-100.00,North,8,3.0,11.0,78,0.00,,,0.00,0.000000,,2013-01-24 04:01:00,
2013-01-23 22:33:00,0.0,-5.0,-100.00,North,8,3.0,11.0,78,0.00,,,0.00,0.000000,,2013-01-24 04:33:00,
2013-01-23 22:43:00,0.0,-5.0,-100.00,North,8,3.0,11.0,78,0.00,,,0.00,0.000000,,2013-01-24 04:43:00,
2013-01-23 22:53:00,0.0,-5.0,-100.00,North,8,3.0,11.0,78,0.00,,,0.00,0.000000,,2013-01-24 04:53:00,
2013-01-23 23:01:00,-1.0,-6.0,-100.00,North,355,3.0,7.0,77,0.00,,,0.00,0.000000,,2013-01-24 05:01:00,
2013-01-23 23:33:00,-1.0,-6.0,-100.00,North,355,3.0,7.0,77,0.00,,,0.00,0.000000,,2013-01-24 05:33:00,
2013-01-23 23:43:00,-1.0,-6.0,-100.00,North,355,3.0,7.0,77,0.00,,,0.00,0.000000,,2013-01-24 05:43:00,
2013-01-23 23:53:00,-1.0,-6.0,-100.00,North,355,3.0,7.0,77,0.00,,,0.00,0.000000,,2013-01-24 05:53:00,